Погода в Кестхее

Венгрия     46°46′06″N   17°14′32″E
темп.,
°C
ветер,
м/с
пор.,
м/с
влажн.,
%
обл.,
%
осадки,
мм/ч
давл.,
гПа
погр.,
м
15 апреля, чт
чт1523:00+2зсз347858 0.0 102373
02:000сз367871 0.0 1023114
05:000сз377840 0.0 1023152
08:00+3сз41163100 0.0 1024710
11:00+8ссз794588 0.0 10232035
14:00+9с694098 0.0 10222459
17:00+8с6945100 0.0 10211886
20:00+4ссз2364100 0.0 102250
16 апреля, пт
пт1623:00+2сз23798 0.0 102350
02:00+1сз238165 0.0 102349
05:00−1зсз22865 0.0 102229
08:00+3ссз25695 0.0 1023312
11:00+8сз235414 0.0 10231230
14:00+11сз1243100 0.0 10211979
17:00+11ссв224537 0.0 10201572
20:00+6ссв357123 0.0 102195
17 апреля, сб
сб1723:00+4с2278100 0.0 102232
02:00+2с368780 0.0 1021109
05:00+2с3695100 0.0 1021132
08:00+5с588391 0.0 1020414
11:00+8ссв5665100 0.0 10191201
14:00+8с5665100 0.2 10181077
17:00+8с5770100 0.0 1017808
20:00+7с61176100 0.0 1017544
18 апреля, вс
вс1823:00+6с61282100 0.1 1018406
02:00+6с61280100 0.1 1017402
05:00+5с61283100 0.0 1017451
08:00+6с61185100 0.1 1017444
11:00+9с7871100 0.1 1017898
14:00+8с7978100 0.3 1017881
17:00+8с7981100 0.3 1016942
20:00+7с71190100 1.4 1017903
19 апреля, пн
пн1923:00+6с61292100 0.9 1017640
02:00+6с51193100 2.5 1016625
05:00+6с61292100 1.3 1015633
08:00+6с61193100 3.1 1015562
11:00+6с51094100 0.7 1015541
14:00+7с5992100 1.0 1014864
17:00+10с468297 0.3 1013757
20:00+8ссз5119196 0.5 1013565